Tracking 28792 objects as of 25-Apr-2024
HD Live streaming from Space Station
objects crossing your sky now

STARLINK-31473

Track STARLINK-31473 now!
10-day predictions
STARLINK-31473 is classified as:


NORAD ID: 59339
Int'l Code: 2024-057V
Perigee: 450.2 km
Apogee: 452.1 km
Inclination: 43.0 °
Period: 93.5 minutes
Semi major axis: 6822 km
RCS: Unknown
Launch date: March 25, 2024
Source: United States (US)
Launch site: AIR FORCE EASTERN TEST RANGE (AFETR)
Your satellite tracking list
Your tracking list is empty




NASA's NSSDC Master Catalog

Two Line Element Set (TLE):
1 59339U 24057V   24116.10422247  .00007720  00000-0  19178-3 0  9998
2 59339  43.0029 135.1945 0001395 283.7453  76.3248 15.40716799  5922
Source of the keplerian elements: AFSPC